When you browse on this site, cookies collect data to enhance your experience and personalize the content and advertising you see.
Visit our Privacy Policy to learn more. By continuing to use the site, you agree to this use of cookies and data.
  • In Schweiz
  • Länderverzeichnis
  • Für 7 Tage
  • Wassertemperatur
  • Wetterkarte
  • Widgets
  • user-avatar
    Anmelden

    Stündliche Wetter Chester

    Heute, 17 September, Dienstag

    Zeit Temperatur Niederschläge Wind Luftdruck Luftfeuchtigkeit
    00:00 +10°C° 0 mm 3 m/S 768 mmHg 86%
    01:00 +10°C° 0 mm 3 m/S 768 mmHg 86%
    02:00 +10°C° 0 mm 3 m/S 768 mmHg 87%
    03:00 +10°C° 0 mm 3 m/S 768 mmHg 88%
    04:00 +10°C° 0 mm 3 m/S 768 mmHg 86%
    05:00 +10°C° 0 mm 3 m/S 768 mmHg 83%
    06:00 +11°C° 0 mm 3 m/S 768 mmHg 80%
    07:00 +12°C° 0 mm 4 m/S 768 mmHg 76%
    08:00 +12°C° 0 mm 4 m/S 769 mmHg 73%
    09:00 +13°C° 0 mm 4 m/S 769 mmHg 69%
    10:00 +14°C° 0 mm 4 m/S 769 mmHg 67%
    11:00 +14°C° 0 mm 4 m/S 769 mmHg 65%
    12:00 +15°C° 0 mm 4 m/S 769 mmHg 63%
    13:00 +15°C° 0 mm 4 m/S 769 mmHg 62%
    14:00 +15°C° 0 mm 4 m/S 769 mmHg 61%
    15:00 +15°C° 0 mm 4 m/S 769 mmHg 60%
    16:00 +14°C° 0 mm 3 m/S 769 mmHg 64%
    17:00 +13°C° 0 mm 3 m/S 769 mmHg 69%
    18:00 +13°C° 0 mm 2 m/S 769 mmHg 73%
    19:00 +12°C° 0 mm 2 m/S 770 mmHg 76%
    20:00 +11°C° 0 mm 1 m/S 770 mmHg 78%
    21:00 +10°C° 0 mm 1 m/S 771 mmHg 80%
    22:00 +10°C° 0 mm 1 m/S 771 mmHg 82%
    23:00 +10°C° 0 mm 1 m/S 771 mmHg 83%

    Morgen, 18 September, Mittwoch

    Zeit Temperatur Niederschläge Wind Luftdruck Luftfeuchtigkeit
    00:00 +9°C° 0 mm 1 m/S 771 mmHg 84%
    01:00 +9°C° 0 mm 1 m/S 771 mmHg 85%
    02:00 +9°C° 0 mm 1 m/S 771 mmHg 85%
    03:00 +8°C° 0 mm 1 m/S 771 mmHg 86%
    04:00 +8°C° 0 mm 1 m/S 772 mmHg 86%
    05:00 +8°C° 0 mm 1 m/S 772 mmHg 87%
    06:00 +8°C° 0 mm 1 m/S 772 mmHg 87%
    07:00 +10°C° 0 mm 1 m/S 772 mmHg 81%
    08:00 +12°C° 0 mm 1 m/S 772 mmHg 75%
    09:00 +14°C° 0 mm 1 m/S 772 mmHg 68%
    10:00 +15°C° 0 mm 1 m/S 772 mmHg 64%
    11:00 +16°C° 0 mm 1 m/S 772 mmHg 59%
    12:00 +19°C° 0 mm 1 m/S 772 mmHg 55%
    13:00 +18°C° 0 mm 2 m/S 772 mmHg 55%
    14:00 +18°C° 0 mm 2 m/S 771 mmHg 56%
    15:00 +18°C° 0 mm 3 m/S 771 mmHg 56%
    16:00 +16°C° 0 mm 2 m/S 771 mmHg 61%
    17:00 +15°C° 0 mm 2 m/S 771 mmHg 66%
    18:00 +14°C° 0 mm 2 m/S 771 mmHg 72%
    19:00 +13°C° 0 mm 2 m/S 772 mmHg 75%
    20:00 +12°C° 0 mm 1 m/S 772 mmHg 78%
    21:00 +11°C° 0 mm 1 m/S 772 mmHg 82%
    22:00 +11°C° 0 mm 1 m/S 772 mmHg 83%
    23:00 +11°C° 0 mm 1 m/S 772 mmHg 85%

    übermorgen, 19 September, Donnerstag

    Zeit Temperatur Niederschläge Wind Luftdruck Luftfeuchtigkeit
    00:00 +10°C° 0 mm 1 m/S 772 mmHg 86%
    01:00 +10°C° 0 mm 1 m/S 772 mmHg 87%
    02:00 +10°C° 0 mm 1 m/S 772 mmHg 87%
    03:00 +10°C° 0 mm 1 m/S 772 mmHg 87%
    04:00 +10°C° 0 mm 1 m/S 772 mmHg 87%
    05:00 +10°C° 0 mm 1 m/S 772 mmHg 87%
    06:00 +10°C° 0 mm 1 m/S 772 mmHg 87%
    07:00 +11°C° 0 mm 0 m/S 772 mmHg 82%
    08:00 +13°C° 0 mm 0 m/S 773 mmHg 77%
    09:00 +15°C° 0 mm 0 m/S 773 mmHg 71%
    10:00 +16°C° 0 mm 0 m/S 773 mmHg 67%
    11:00 +17°C° 0 mm 0 m/S 772 mmHg 63%
    12:00 +19°C° 0 mm 0 m/S 772 mmHg 59%
    13:00 +19°C° 0 mm 0 m/S 772 mmHg 59%
    14:00 +21°C° 0 mm 1 m/S 772 mmHg 58%
    15:00 +21°C° 0 mm 1 m/S 772 mmHg 58%
    16:00 +20°C° 0 mm 1 m/S 771 mmHg 65%
    17:00 +18°C° 0 mm 1 m/S 771 mmHg 71%
    18:00 +16°C° 0 mm 1 m/S 771 mmHg 78%
    19:00 +15°C° 0 mm 1 m/S 771 mmHg 81%
    20:00 +13°C° 0 mm 0 m/S 772 mmHg 83%
    21:00 +12°C° 0 mm 0 m/S 772 mmHg 86%
    22:00 +12°C° 0 mm 0 m/S 772 mmHg 86%
    23:00 +13°C° 0 mm 1 m/S 771 mmHg 86%

    20 September, Freitag

    Zeit Temperatur Niederschläge Wind Luftdruck Luftfeuchtigkeit
    00:00 +13°C° 0 mm 1 m/S 771 mmHg 86%
    01:00 +12°C° 0 mm 1 m/S 771 mmHg 86%
    02:00 +12°C° 0 mm 1 m/S 771 mmHg 87%
    03:00 +12°C° 0 mm 2 m/S 771 mmHg 87%
    04:00 +12°C° 0 mm 2 m/S 770 mmHg 87%
    05:00 +12°C° 0 mm 2 m/S 770 mmHg 88%
    06:00 +10°C° 0 mm 2 m/S 769 mmHg 89%
    07:00 +12°C° 0 mm 3 m/S 769 mmHg 84%
    08:00 +14°C° 0 mm 3 m/S 769 mmHg 79%
    09:00 +16°C° 0 mm 3 m/S 769 mmHg 73%
    10:00 +17°C° 0 mm 4 m/S 769 mmHg 70%
    11:00 +18°C° 0 mm 4 m/S 768 mmHg 66%
    12:00 +19°C° 0 mm 5 m/S 768 mmHg 62%
    13:00 +20°C° 0 mm 5 m/S 767 mmHg 61%
    14:00 +20°C° 0 mm 5 m/S 766 mmHg 61%
    15:00 +21°C° 0 mm 5 m/S 766 mmHg 61%
    16:00 +19°C° 0 mm 5 m/S 765 mmHg 65%
    17:00 +17°C° 0 mm 5 m/S 765 mmHg 69%
    18:00 +17°C° 0 mm 4 m/S 764 mmHg 73%
    19:00 +15°C° 0 mm 5 m/S 764 mmHg 70%
    20:00 +15°C° 0 mm 5 m/S 764 mmHg 67%
    21:00 +14°C° 0 mm 6 m/S 764 mmHg 64%
    22:00 +13°C° 0 mm 6 m/S 763 mmHg 67%
    23:00 +13°C° 0 mm 6 m/S 763 mmHg 70%

    21 September, Samstag

    Zeit Temperatur Niederschläge Wind Luftdruck Luftfeuchtigkeit
    00:00 +11°C° 0 mm 6 m/S 762 mmHg 73%
    01:00 +11°C° 0 mm 6 m/S 761 mmHg 72%
    02:00 +11°C° 0 mm 6 m/S 761 mmHg 72%
    03:00 +12°C° 0 mm 5 m/S 760 mmHg 72%
    04:00 +10°C° 0 mm 5 m/S 760 mmHg 71%
    05:00 +10°C° 0 mm 5 m/S 759 mmHg 71%
    06:00 +10°C° 0 mm 5 m/S 759 mmHg 70%
    07:00 +11°C° 0 mm 6 m/S 758 mmHg 68%
    08:00 +13°C° 0 mm 6 m/S 758 mmHg 66%
    09:00 +14°C° 0 mm 6 m/S 757 mmHg 64%
    10:00 +15°C° 0 mm 6 m/S 757 mmHg 62%
    11:00 +17°C° 0 mm 6 m/S 757 mmHg 60%
    12:00 +19°C° 0 mm 6 m/S 756 mmHg 58%
    13:00 +20°C° 0 mm 6 m/S 756 mmHg 60%
    14:00 +21°C° 0 mm 6 m/S 755 mmHg 61%
    15:00 +22°C° 0 mm 6 m/S 755 mmHg 63%
    16:00 +21°C° 0.1 mm 5 m/S 754 mmHg 70%
    17:00 +20°C° 0.1 mm 5 m/S 754 mmHg 77%
    18:00 +20°C° 0.1 mm 4 m/S 754 mmHg 84%
    19:00 +19°C° 0 mm 4 m/S 754 mmHg 86%
    20:00 +18°C° 0 mm 4 m/S 754 mmHg 89%
    21:00 +18°C° 0 mm 4 m/S 754 mmHg 92%
    22:00 +17°C° 0 mm 4 m/S 754 mmHg 92%
    23:00 +17°C° 0 mm 4 m/S 754 mmHg 92%

    22 September, Sonntag

    Zeit Temperatur Niederschläge Wind Luftdruck Luftfeuchtigkeit
    00:00 +15°C° 0 mm 4 m/S 754 mmHg 92%
    01:00 +15°C° 0 mm 4 m/S 754 mmHg 91%
    02:00 +15°C° 0 mm 4 m/S 754 mmHg 91%
    03:00 +16°C° 0 mm 5 m/S 754 mmHg 90%
    04:00 +15°C° 0 mm 4 m/S 754 mmHg 91%
    05:00 +15°C° 0 mm 4 m/S 754 mmHg 92%
    06:00 +14°C° 0 mm 3 m/S 754 mmHg 93%
    07:00 +15°C° 0 mm 4 m/S 754 mmHg 87%
    08:00 +16°C° 0 mm 5 m/S 755 mmHg 82%
    09:00 +17°C° 0 mm 6 m/S 755 mmHg 77%
    10:00 +19°C° 0 mm 6 m/S 755 mmHg 71%
    11:00 +19°C° 0 mm 5 m/S 755 mmHg 66%
    12:00 +20°C° 0 mm 5 m/S 756 mmHg 61%
    13:00 +20°C° 0 mm 5 m/S 756 mmHg 60%
    14:00 +20°C° 0 mm 5 m/S 756 mmHg 59%
    15:00 +19°C° 0 mm 4 m/S 756 mmHg 59%
    16:00 +18°C° 0.1 mm 4 m/S 756 mmHg 64%
    17:00 +17°C° 0.1 mm 3 m/S 757 mmHg 70%
    18:00 +16°C° 0.1 mm 3 m/S 757 mmHg 76%
    19:00 +14°C° 0 mm 3 m/S 757 mmHg 80%
    20:00 +13°C° 0 mm 3 m/S 758 mmHg 84%
    21:00 +12°C° 0 mm 3 m/S 759 mmHg 88%
    22:00 +12°C° 0 mm 3 m/S 759 mmHg 88%
    23:00 +11°C° 0 mm 3 m/S 759 mmHg 89%
    Mehr zeigen